Latest Weather Observations for Robe Airport

IDS60801

Issued at 6:31 pm CDT Friday 12 February 2016 (issued every 30 minutes, with the page automatically refreshed every 10 minutes)

About weather observations | Map of weather stations | Latest weather observations for SA | Other Formats
Station Details ID: 026105 Name: ROBE AIRFIELD Lat: -37.18 Lon: 139.81 Height: 3.0 m
Data from the previous 72 hours. | See also: Recent months at Robe Airport
Date/Time
CDT
Temp
°C
App
Temp
°C
Dew
Point
Rel
Hum
%
Delta-T
°C
Wind Press
QNH
hPa
Press
MSL
hPa
Rain
since 9 am
mm
Dir
 
Spd
km/h
Gust
km/h
Spd
kts
Gust
kts
12/06:30pm 21.0 17.3 11.6 55 5.2 SSW 22 28 12 15 1012.1 1012.1 0.0
12/06:00pm 23.4 21.3 11.1 46 6.9 SSW 13 17 7 9 1011.7 1011.7 0.0
12/05:30pm 24.1 22.4 11.1 44 7.3 SSW 11 17 6 9 1011.8 1011.8 0.0
12/05:00pm 24.1 22.0 11.1 44 7.3 S 13 20 7 11 1012.1 1012.1 0.0
12/04:30pm 24.1 22.0 11.1 44 7.3 SSW 13 19 7 10 1012.4 1012.4 0.0
12/04:00pm 24.9 23.2 12.5 46 7.1 SSW 13 22 7 12 1012.7 1012.7 0.0
12/03:30pm 23.9 22.5 12.2 48 6.7 SSW 11 19 6 10 1012.9 1012.9 0.0
12/03:00pm 23.8 22.1 12.4 48 6.5 S 13 24 7 13 1013.4 1013.4 0.0
12/02:30pm 23.9 21.4 12.2 48 6.7 SSW 17 26 9 14 1013.8 1013.8 0.0
12/02:00pm 24.0 22.4 12.9 50 6.4 SW 13 24 7 13 1013.8 1013.8 0.0
12/01:30pm 25.7 25.6 13.9 48 7.0 SW 7 15 4 8 1014.0 1014.0 0.0
12/01:00pm 24.2 22.9 13.7 52 6.1 SSW 13 20 7 11 1014.4 1014.4 0.0
12/12:30pm 25.4 24.7 14.2 50 6.6 SW 11 19 6 10 1014.5 1014.5 0.0
12/12:00pm 24.1 22.9 13.9 53 6.0 SSW 13 19 7 10 1014.9 1014.9 0.0
12/11:30am 23.4 21.8 13.8 54 5.6 SSW 15 20 8 11 1015.3 1015.3 0.0
12/11:00am 23.2 22.8 13.1 53 5.8 SSW 7 13 4 7 1015.7 1015.7 0.0
12/10:30am 21.8 21.4 12.9 57 5.1 SE 7 13 4 7 1015.8 1015.8 0.0
12/10:00am 20.8 20.0 12.8 60 4.5 ESE 9 15 5 8 1015.9 1015.9 0.0
12/09:30am 19.3 18.2 13.0 67 3.6 SSE 11 17 6 9 1016.4 1016.4 0.0
12/09:00am 18.2 17.0 12.9 71 3.0 SE 11 17 6 9 1016.6 1016.6 0.0
12/08:30am 16.7 15.9 12.8 78 2.2 SSE 9 13 5 7 1016.7 1016.7 0.0
12/08:00am 15.1 14.7 13.0 87 1.2 SSE 7 11 4 6 1016.3 1016.3 0.0
12/07:30am 12.7 12.2 11.9 95 0.4 SSE 6 7 3 4 1016.3 1016.3 0.0
12/07:00am 11.1 9.9 10.3 95 0.4 SSE 7 9 4 5 1016.2 1016.2 0.0
12/06:30am 11.6 10.2 10.8 95 0.4 SSE 9 9 5 5 1016.1 1016.1 0.0
12/06:00am 11.4 10.3 10.5 94 0.5 SSE 7 11 4 6 1016.1 1016.1 0.0
12/05:30am 12.4 11.5 11.3 93 0.6 SSE 7 9 4 5 1016.0 1016.0 0.0
12/05:00am 12.7 11.8 11.4 92 0.7 SSE 7 13 4 7 1016.0 1016.0 0.0
12/04:30am 13.3 12.2 12.0 92 0.7 SSE 9 13 5 7 1015.9 1015.9 0.0
12/04:00am 13.7 12.7 12.3 91 0.8 SSE 9 13 5 7 1016.0 1016.0 0.0
12/03:30am 13.8 12.8 12.2 90 0.9 SSE 9 13 5 7 1016.2 1016.2 0.0
12/03:00am 14.4 13.1 12.4 88 1.1 SSE 11 15 6 8 1016.3 1016.3 0.0
12/02:30am 14.7 13.4 12.6 87 1.1 SSE 11 17 6 9 1016.4 1016.4 0.0
12/02:00am 15.0 13.8 12.9 87 1.2 SE 11 17 6 9 1016.5 1016.5 0.0
12/01:30am 15.6 13.7 12.9 84 1.5 SE 15 20 8 11 1016.6 1016.6 0.0
12/01:00am 15.7 14.2 13.0 84 1.5 SE 13 19 7 10 1016.8 1016.8 0.0
12/12:30am 16.0 14.3 13.7 86 1.3 SE 15 22 8 12 1017.1 1017.1 0.0
12/12:00am 15.9 14.3 13.9 88 1.1 SSE 15 20 8 11 1017.4 1017.4 0.0
 
Date/Time
CDT
Temp
°C
App
Temp
°C
Dew
Point
Rel
Hum
%
Delta-T
°C
Wind Press
QNH
hPa
Press
MSL
hPa
Rain
since 9 am
mm
Dir
 
Spd
km/h
Gust
km/h
Spd
kts
Gust
kts
11/11:30pm 16.0 14.1 14.2 89 1.0 SSE 17 22 9 12 1017.5 1017.5 0.0
11/11:00pm 15.9 14.0 14.3 90 0.9 S 17 24 9 13 1017.8 1017.8 0.0
11/10:30pm 16.0 13.7 14.2 89 1.0 S 19 22 10 12 1018.0 1018.0 0.0
11/10:00pm 16.7 14.5 14.3 86 1.4 SSE 19 24 10 13 1017.6 1017.6 0.0
11/09:30pm 17.1 14.8 14.2 83 1.7 SSE 19 26 10 14 1017.3 1017.3 0.0
11/09:00pm 17.9 15.1 14.2 79 2.1 SSE 22 28 12 15 1017.0 1017.0 0.0
11/08:30pm 18.3 15.6 14.6 79 2.1 SSE 22 32 12 17 1016.8 1016.8 0.0
11/08:00pm 18.6 15.9 14.7 78 2.3 SSE 22 32 12 17 1016.7 1016.7 0.0
11/07:30pm 18.7 14.9 14.8 78 2.3 SSE 28 37 15 20 1016.5 1016.5 0.0
11/07:00pm 19.7 15.6 14.9 74 2.8 S 30 43 16 23 1016.6 1016.6 0.0
11/06:30pm 19.8 15.3 15.0 74 2.8 S 32 39 17 21 1016.5 1016.5 0.0
11/06:00pm 20.1 15.5 14.5 70 3.3 S 32 41 17 22 1016.2 1016.2 0.0
11/05:30pm 21.4 16.6 14.6 65 4.0 S 33 48 18 26 1016.2 1016.2 0.0
11/05:00pm 21.1 15.7 14.0 64 4.1 S 35 46 19 25 1015.9 1015.9 0.0
11/04:30pm 22.6 17.9 14.4 60 4.8 S 32 43 17 23 1015.9 1015.9 0.0
11/04:00pm 22.6 17.9 14.2 59 4.9 S 32 41 17 22 1015.9 1015.9 0.0
11/03:30pm 22.2 17.3 13.8 59 4.9 S 32 43 17 23 1016.1 1016.1 0.0
11/03:00pm 22.2 18.2 15.3 65 4.1 S 30 43 16 23 1016.7 1016.7 0.0
11/02:30pm 22.0 17.4 14.6 63 4.3 SSW 32 39 17 21 1016.8 1016.8 0.0
11/02:00pm 22.9 18.8 15.0 61 4.7 S 30 39 16 21 1016.8 1016.8 0.0
11/01:30pm 22.8 19.1 15.1 62 4.6 S 28 37 15 20 1017.0 1017.0 0.0
11/01:00pm 22.4 18.1 14.5 61 4.6 SSW 30 39 16 21 1017.1 1017.1 0.0
11/12:30pm 22.2 18.0 14.6 62 4.5 SSW 30 39 16 21 1017.3 1017.3 0.0
11/12:00pm 22.6 18.7 14.4 60 4.8 SSW 28 37 15 20 1017.5 1017.5 0.0
11/11:30am 23.7 21.5 14.4 56 5.5 SSE 19 30 10 16 1017.3 1017.3 0.0
11/11:00am 22.6 20.6 13.9 58 5.1 SSE 17 26 9 14 1017.6 1017.6 0.0
11/10:30am 22.1 19.9 14.5 62 4.5 SSE 19 26 10 14 1017.7 1017.7 0.0
11/10:00am 21.3 19.1 14.5 65 4.0 SE 19 26 10 14 1017.8 1017.8 0.0
11/09:30am 20.4 18.7 14.7 70 3.3 SSE 17 24 9 13 1018.1 1018.1 0.0
11/09:00am 18.8 17.1 14.7 77 2.4 SE 17 22 9 12 1018.3 1018.3 0.0
11/08:30am 17.9 17.4 15.0 83 1.7 SE 11 17 6 9 1018.5 1018.5 0.0
11/08:00am 15.6 15.8 14.8 95 0.5 SSE 7 9 4 5 1018.1 1018.1 0.0
11/07:30am 13.3 13.0 12.8 97 0.3 SSE 6 7 3 4 1017.6 1017.6 0.0
11/07:00am 11.5 11.1 11.0 97 0.3 S 4 6 2 3 1017.4 1017.4 0.0
11/06:30am 10.9 10.3 10.3 96 0.3 S 4 6 2 3 1017.3 1017.3 0.0
11/06:00am 11.8 10.5 11.3 97 0.3 S 9 11 5 6 1016.8 1016.8 0.0
11/05:30am 11.6 10.6 11.0 96 0.3 SSE 7 9 4 5 1016.7 1016.7 0.0
11/05:00am 11.7 10.7 10.9 95 0.4 S 7 9 4 5 1016.4 1016.4 0.0
11/04:30am 11.9 10.5 11.0 94 0.5 SSE 9 11 5 6 1016.2 1016.2 0.0
11/04:00am 13.4 12.5 12.5 94 0.5 SSE 9 13 5 7 1016.1 1016.1 0.0
11/03:30am 12.4 11.5 11.5 94 0.5 SSE 7 9 4 5 1016.1 1016.1 0.0
11/03:00am 12.8 11.6 11.7 93 0.6 S 9 13 5 7 1016.2 1016.2 0.0
11/02:30am 13.4 12.4 12.3 93 0.6 SSE 9 13 5 7 1016.3 1016.3 0.0
11/02:00am 13.4 12.3 12.1 92 0.7 SSE 9 11 5 6 1016.4 1016.4 0.0
11/01:30am 14.1 13.2 12.5 90 0.9 SSE 9 11 5 6 1016.5 1016.5 0.0
11/01:00am 14.8 13.7 13.0 89 1.0 SSE 11 17 6 9 1016.8 1016.8 0.0
11/12:30am 15.0 13.1 13.0 88 1.1 SSE 15 20 8 11 1017.0 1017.0 0.0
11/12:00am 15.4 13.6 13.4 88 1.1 SSE 15 20 8 11 1016.8 1016.8 0.0
 
Date/Time
CDT
Temp
°C
App
Temp
°C
Dew
Point
Rel
Hum
%
Delta-T
°C
Wind Press
QNH
hPa
Press
MSL
hPa
Rain
since 9 am
mm
Dir
 
Spd
km/h
Gust
km/h
Spd
kts
Gust
kts
10/11:30pm 15.5 13.4 13.7 89 1.0 SSE 17 22 9 12 1016.9 1016.9 0.0
10/11:00pm 15.2 13.4 13.2 88 1.1 SSE 15 26 8 14 1017.0 1017.0 0.0
10/10:30pm 15.2 13.4 13.2 88 1.1 S 15 19 8 10 1017.1 1017.1 0.0
10/10:00pm 15.5 13.7 13.2 86 1.3 S 15 19 8 10 1017.0 1017.0 0.0
10/09:30pm 15.7 13.9 13.4 86 1.3 SSE 15 19 8 10 1016.8 1016.8 0.0
10/09:00pm 16.3 14.6 13.6 84 1.5 SSE 15 19 8 10 1016.7 1016.7 0.0
10/08:30pm 16.8 14.7 13.5 81 1.9 SSE 17 24 9 13 1016.7 1016.7 0.0
10/08:00pm 17.7 15.0 13.6 77 2.3 S 20 28 11 15 1016.5 1016.5 0.0
10/07:30pm 18.6 15.6 13.7 73 2.8 S 22 32 12 17 1016.3 1016.3 0.0
10/07:00pm 19.1 14.4 13.3 69 3.3 S 30 39 16 21 1016.0 1016.0 0.0
10/06:30pm 20.1 15.9 13.6 66 3.7 S 28 37 15 20 1015.8 1015.8 0.0
10/06:00pm 20.2 15.5 13.2 64 4.0 S 30 37 16 20 1015.7 1015.7 0.0
10/05:30pm 21.0 16.4 13.4 62 4.4 S 30 39 16 21 1015.5 1015.5 0.0
10/05:00pm 21.4 17.2 13.6 61 4.5 S 28 37 15 20 1015.4 1015.4 0.0
10/04:30pm 21.6 17.5 13.8 61 4.5 S 28 41 15 22 1015.4 1015.4 0.0
10/04:00pm 21.6 16.6 13.5 60 4.7 S 32 41 17 22 1015.5 1015.5 0.0
10/03:30pm 21.7 16.7 13.3 59 4.8 S 32 39 17 21 1015.5 1015.5 0.0
10/03:00pm 21.8 16.7 13.2 58 4.9 S 32 41 17 22 1015.6 1015.6 0.0
10/02:30pm 22.1 17.8 13.2 57 5.1 S 28 37 15 20 1015.9 1015.9 0.0
10/02:00pm 21.8 17.0 12.9 57 5.1 S 30 39 16 21 1016.0 1016.0 0.0
10/01:30pm 21.9 17.6 13.3 58 4.9 S 28 35 15 19 1016.0 1016.0 0.0
10/01:00pm 21.7 17.7 13.1 58 4.9 S 26 33 14 18 1016.2 1016.2 0.0
10/12:30pm 21.8 18.6 13.2 58 4.9 SSE 22 35 12 19 1016.3 1016.3 0.0
10/12:00pm 22.4 19.8 13.7 58 5.0 SSE 20 28 11 15 1016.6 1016.6 0.0
10/11:30am 21.4 18.6 13.1 59 4.7 SSE 20 28 11 15 1017.0 1017.0 0.0
10/11:00am 20.8 18.2 13.3 62 4.3 SSE 19 28 10 15 1017.2 1017.2 0.0
10/10:30am 20.1 17.6 13.6 66 3.7 SSE 19 28 10 15 1017.4 1017.4 0.0
10/10:00am 19.8 16.6 13.0 65 3.8 SSE 22 32 12 17 1017.4 1017.4 0.0
10/09:30am 18.5 15.5 12.7 69 3.2 SSE 20 30 11 16 1017.6 1017.6 0.0
10/09:00am 17.0 15.6 13.3 79 2.1 SSE 13 19 7 10 1017.4 1017.4 0.0
10/08:30am 16.7 15.8 13.8 83 1.6 SE 11 17 6 9 1017.4 1017.4 0.0
10/08:00am 14.8 14.3 13.8 94 0.6 SE 9 15 5 8 1017.1 1017.1 0.0
10/07:30am 12.1 10.9 11.6 97 0.3 S 9 13 5 7 1016.8 1016.8 0.0
10/07:00am 10.3 9.1 9.7 96 0.3 SSE 6 7 3 4 1016.5 1016.5 0.0
10/06:30am 11.1 10.2 10.5 96 0.3 SSE 6 9 3 5 1016.1 1016.1 0.0
10/06:00am 10.8 9.6 10.2 96 0.3 SSE 7 11 4 6 1016.0 1016.0 0.0
10/05:30am 11.8 10.8 11.0 95 0.4 SSE 7 11 4 6 1015.8 1015.8 0.0
10/05:00am 12.3 10.3 11.5 95 0.4 SSE 13 17 7 9 1015.8 1015.8 0.0
10/04:30am 12.4 10.4 11.5 94 0.5 SSE 13 17 7 9 1015.7 1015.7 0.0
10/04:00am 12.0 10.3 11.1 94 0.5 SSE 11 13 6 7 1015.6 1015.6 0.0
10/03:30am 13.1 11.6 11.8 92 0.7 SSE 11 15 6 8 1015.5 1015.5 0.0
10/03:00am 13.3 11.8 12.0 92 0.7 SSE 11 15 6 8 1015.9 1015.9 0.0
10/02:30am 13.6 12.3 12.5 93 0.6 SE 11 17 6 9 1016.1 1016.1 0.0
10/02:00am 13.4 12.3 12.0 91 0.8 SSE 9 15 5 8 1016.5 1016.5 0.0
10/01:30am 14.1 11.7 12.7 91 0.8 SSE 17 22 9 12 1017.0 1017.0 0.0
10/01:00am 13.7 11.6 12.3 91 0.8 S 15 20 8 11 1017.2 1017.2 0.0
10/12:30am 13.6 11.8 12.0 90 0.9 SSE 13 17 7 9 1017.3 1017.3 0.0
10/12:00am 14.1 12.3 12.0 87 1.1 SSE 13 17 7 9 1017.3 1017.3 0.0
 
Date/Time
CDT
Temp
°C
App
Temp
°C
Dew
Point
Rel
Hum
%
Delta-T
°C
Wind Press
QNH
hPa
Press
MSL
hPa
Rain
since 9 am
mm
Dir
 
Spd
km/h
Gust
km/h
Spd
kts
Gust
kts
09/11:30pm 14.9 13.7 12.8 87 1.2 SE 11 17 6 9 1017.5 1017.5 0.0
09/11:00pm 15.6 13.3 13.1 85 1.4 SSE 17 22 9 12 1017.6 1017.6 0.0
09/10:30pm 15.5 13.5 12.8 84 1.5 SSE 15 20 8 11 1017.7 1017.7 0.0
09/10:00pm 15.7 12.8 13.0 84 1.5 SSE 20 28 11 15 1018.0 1018.0 0.0
09/09:30pm 16.1 13.2 13.0 82 1.7 SSE 20 26 11 14 1017.7 1017.7 0.0
09/09:00pm 16.1 12.9 13.0 82 1.7 SSE 22 30 12 16 1017.6 1017.6 0.0
09/08:30pm 16.4 12.9 13.3 82 1.7 S 24 30 13 16 1017.7 1017.7 0.0
09/08:00pm 17.3 13.4 13.2 77 2.3 S 26 33 14 18 1017.6 1017.6 0.0
09/07:30pm 18.4 14.6 13.5 73 2.8 SSE 26 35 14 19 1017.7 1017.7 0.0
09/07:00pm 19.2 14.7 13.8 71 3.1 S 30 39 16 21 1017.9 1017.9 0.0

Other Formats:

Comma delimited format used in spreadsheet applications
http://www.bom.gov.au/fwo/IDS60801/IDS60801.95816.axf

JavaScript Object Notation format (JSON) in row-major order
http://www.bom.gov.au/fwo/IDS60801/IDS60801.95816.json